Time,TemperatureF,DewpointF,PressureIn,WindDirection,WindDirectionDegrees,WindSpeedMPH,WindSpeedGustMPH,Humidity,HourlyPrecipIn,Conditions,Clouds,dailyrainin,SoftwareType,DateUTC
2013-03-15 00:14:00,50.4,41.0,30.25,NE,47,0.0,-999.0,70,-99.99,,,0.00,weatherlink.com 1.10,2013-03-15 04:14:00,
2013-03-15 00:28:00,49.8,41.0,30.25,NE,47,0.0,-999.0,73,-99.99,,,0.00,weatherlink.com 1.10,2013-03-15 04:28:00,
2013-03-15 00:43:00,49.6,42.0,30.25,NE,47,0.0,-999.0,75,-99.99,,,0.00,weatherlink.com 1.10,2013-03-15 04:43:00,
2013-03-15 00:58:00,50.2,42.0,30.25,NE,47,0.0,-999.0,74,-99.99,,,0.00,weatherlink.com 1.10,2013-03-15 04:58:00,
2013-03-15 01:14:00,50.1,42.0,30.25,NE,47,0.0,-999.0,74,-99.99,,,0.00,weatherlink.com 1.10,2013-03-15 05:14:00,
2013-03-15 01:28:00,49.1,42.0,30.25,NE,47,0.0,-999.0,76,-99.99,,,0.00,weatherlink.com 1.10,2013-03-15 05:28:00,
2013-03-15 01:43:00,48.5,42.0,30.25,NE,47,0.0,-999.0,78,-99.99,,,0.00,weatherlink.com 1.10,2013-03-15 05:43:00,
2013-03-15 01:58:00,48.1,42.0,30.25,NE,47,0.0,-999.0,79,-99.99,,,0.00,weatherlink.com 1.10,2013-03-15 05:58:00,
2013-03-15 02:13:00,47.6,42.0,30.25,NE,47,0.0,-999.0,81,-99.99,,,0.00,weatherlink.com 1.10,2013-03-15 06:13:00,
2013-03-15 02:28:00,47.2,42.0,30.25,NE,47,0.0,-999.0,81,-99.99,,,0.00,weatherlink.com 1.10,2013-03-15 06:28:00,
2013-03-15 02:43:00,47.1,42.0,30.24,NE,47,0.0,-999.0,81,-99.99,,,0.00,weatherlink.com 1.10,2013-03-15 06:43:00,
2013-03-15 02:58:00,47.3,42.0,30.24,NE,47,0.0,-999.0,82,-99.99,,,0.00,weatherlink.com 1.10,2013-03-15 06:58:00,
2013-03-15 03:13:00,48.0,42.0,30.24,NE,47,0.0,-999.0,80,-99.99,,,0.00,weatherlink.com 1.10,2013-03-15 07:13:00,
2013-03-15 03:28:00,48.1,42.0,30.24,NE,47,0.0,-999.0,78,-99.99,,,0.00,weatherlink.com 1.10,2013-03-15 07:28:00,
2013-03-15 03:43:00,48.2,42.0,30.24,NE,47,0.0,-999.0,78,-99.99,,,0.00,weatherlink.com 1.10,2013-03-15 07:43:00,
2013-03-15 03:58:00,48.1,42.0,30.24,NE,47,0.0,-999.0,78,-99.99,,,0.00,weatherlink.com 1.10,2013-03-15 07:58:00,
2013-03-15 04:13:00,47.9,42.0,30.24,NE,47,2.0,-999.0,79,-99.99,,,0.00,weatherlink.com 1.10,2013-03-15 08:13:00,
2013-03-15 04:28:00,48.1,42.0,30.23,NE,47,0.0,-999.0,79,-99.99,,,0.00,weatherlink.com 1.10,2013-03-15 08:28:00,
2013-03-15 04:43:00,48.1,42.0,30.23,NE,47,0.0,-999.0,79,-99.99,,,0.00,weatherlink.com 1.10,2013-03-15 08:43:00,
2013-03-15 04:58:00,47.7,42.0,30.23,NE,47,0.0,-999.0,79,-99.99,,,0.00,weatherlink.com 1.10,2013-03-15 08:58:00,
2013-03-15 05:13:00,47.0,41.0,30.23,NE,47,0.0,-999.0,81,-99.99,,,0.00,weatherlink.com 1.10,2013-03-15 09:13:00,
2013-03-15 05:28:00,46.3,41.0,30.23,NE,47,0.0,-999.0,83,-99.99,,,0.00,weatherlink.com 1.10,2013-03-15 09:28:00,
2013-03-15 05:44:00,45.6,41.0,30.23,NE,47,0.0,-999.0,84,-99.99,,,0.00,weatherlink.com 1.10,2013-03-15 09:44:00,
2013-03-15 05:59:00,45.1,41.0,30.23,NE,47,0.0,-999.0,86,-99.99,,,0.00,weatherlink.com 1.10,2013-03-15 09:59:00,
2013-03-15 06:29:00,44.9,42.0,30.24,NE,47,0.0,-999.0,88,-99.99,,,0.00,weatherlink.com 1.10,2013-03-15 10:29:00,
2013-03-15 06:44:00,44.7,41.0,30.25,NE,47,0.0,-999.0,88,-99.99,,,0.00,weatherlink.com 1.10,2013-03-15 10:44:00,
2013-03-15 06:59:00,44.5,42.0,30.26,NE,47,0.0,-999.0,89,-99.99,,,0.00,weatherlink.com 1.10,2013-03-15 10:59:00,
2013-03-15 07:14:00,44.5,42.0,30.26,NE,47,0.0,-999.0,90,-99.99,,,0.00,weatherlink.com 1.10,2013-03-15 11:14:00,
2013-03-15 07:44:00,44.2,42.0,30.27,NE,47,0.0,-999.0,90,-99.99,,,0.00,weatherlink.com 1.10,2013-03-15 11:44:00,
2013-03-15 07:59:00,44.7,42.0,30.27,NE,47,0.0,-999.0,90,-99.99,,,0.00,weatherlink.com 1.10,2013-03-15 11:59:00,
2013-03-15 08:14:00,46.0,43.0,30.27,NE,47,0.0,-999.0,90,-99.99,,,0.00,weatherlink.com 1.10,2013-03-15 12:14:00,
2013-03-15 08:29:00,48.0,44.0,30.27,NE,47,0.0,-999.0,86,-99.99,,,0.00,weatherlink.com 1.10,2013-03-15 12:29:00,
2013-03-15 08:44:00,49.5,45.0,30.27,NE,47,0.0,-999.0,83,-99.99,,,0.00,weatherlink.com 1.10,2013-03-15 12:44:00,
2013-03-15 08:58:00,51.2,44.0,30.27,NE,47,0.0,-999.0,76,-99.99,,,0.00,weatherlink.com 1.10,2013-03-15 12:58:00,
2013-03-15 09:14:00,53.6,44.0,30.28,NE,47,1.0,-999.0,70,-99.99,,,0.00,weatherlink.com 1.10,2013-03-15 13:14:00,
2013-03-15 09:29:00,55.2,43.0,30.28,NE,46,1.0,-999.0,63,-99.99,,,0.00,weatherlink.com 1.10,2013-03-15 13:29:00,
2013-03-15 09:44:00,55.0,39.0,30.29,NE,37,4.0,-999.0,55,-99.99,,,0.00,weatherlink.com 1.10,2013-03-15 13:44:00,
2013-03-15 09:59:00,55.4,41.0,30.29,NE,40,0.0,-999.0,59,-99.99,,,0.00,weatherlink.com 1.10,2013-03-15 13:59:00,
2013-03-15 10:15:00,56.3,39.0,30.29,North,5,7.0,-999.0,52,-99.99,,,0.00,weatherlink.com 1.10,2013-03-15 14:15:00,
2013-03-15 10:30:00,57.5,36.0,30.30,NE,41,4.0,-999.0,44,-99.99,,,0.00,weatherlink.com 1.10,2013-03-15 14:30:00,
2013-03-15 10:44:00,58.4,34.0,30.30,NNW,348,6.0,-999.0,40,-99.99,,,0.00,weatherlink.com 1.10,2013-03-15 14:44:00,
2013-03-15 10:59:00,58.9,33.0,30.29,NE,37,7.0,-999.0,38,-99.99,,,0.00,weatherlink.com 1.10,2013-03-15 14:59:00,
2013-03-15 11:14:00,59.7,33.0,30.29,East,80,8.0,-999.0,37,-99.99,,,0.00,weatherlink.com 1.10,2013-03-15 15:14:00,
2013-03-15 11:29:00,60.6,32.0,30.28,ENE,69,3.0,-999.0,34,-99.99,,,0.00,weatherlink.com 1.10,2013-03-15 15:29:00,
2013-03-15 11:44:00,61.7,31.0,30.28,ENE,68,5.0,-999.0,32,-99.99,,,0.00,weatherlink.com 1.10,2013-03-15 15:44:00,
2013-03-15 11:59:00,62.2,31.0,30.28,NE,37,7.0,-999.0,31,-99.99,,,0.00,weatherlink.com 1.10,2013-03-15 15:59:00,
2013-03-15 12:28:00,63.9,33.0,30.27,NE,47,6.0,-999.0,31,-99.99,,,0.00,weatherlink.com 1.10,2013-03-15 16:28:00,
2013-03-15 12:44:00,65.0,34.0,30.26,East,84,0.0,-999.0,31,-99.99,,,0.00,weatherlink.com 1.10,2013-03-15 16:44:00,
2013-03-15 12:58:00,65.2,34.0,30.25,NE,42,8.0,-999.0,32,-99.99,,,0.00,weatherlink.com 1.10,2013-03-15 16:58:00,
2013-03-15 13:14:00,67.0,36.0,30.25,SE,138,3.0,-999.0,32,-99.99,,,0.00,weatherlink.com 1.10,2013-03-15 17:14:00,
2013-03-15 13:29:00,66.5,36.0,30.24,NNE,24,8.0,-999.0,32,-99.99,,,0.00,weatherlink.com 1.10,2013-03-15 17:29:00,
2013-03-15 13:44:00,66.4,36.0,30.23,ENE,57,10.0,-999.0,33,-99.99,,,0.00,weatherlink.com 1.10,2013-03-15 17:44:00,
2013-03-15 13:59:00,67.8,36.0,30.22,East,94,1.0,-999.0,31,-99.99,,,0.00,weatherlink.com 1.10,2013-03-15 17:59:00,
2013-03-15 14:14:00,67.7,36.0,30.21,ENE,63,6.0,-999.0,31,-99.99,,,0.00,weatherlink.com 1.10,2013-03-15 18:14:00,
2013-03-15 14:29:00,68.7,35.0,30.21,NE,40,8.0,-999.0,29,-99.99,,,0.00,weatherlink.com 1.10,2013-03-15 18:29:00,
2013-03-15 14:44:00,69.0,36.0,30.20,ENE,59,2.0,-999.0,30,-99.99,,,0.00,weatherlink.com 1.10,2013-03-15 18:44:00,
2013-03-15 15:14:00,69.5,36.0,30.19,NNE,33,2.0,-999.0,29,-99.99,,,0.00,weatherlink.com 1.10,2013-03-15 19:14:00,
2013-03-15 15:29:00,69.5,37.0,30.18,NE,49,5.0,-999.0,30,-99.99,,,0.00,weatherlink.com 1.10,2013-03-15 19:29:00,
2013-03-15 15:44:00,70.2,36.0,30.18,North,351,0.0,-999.0,29,-99.99,,,0.00,weatherlink.com 1.10,2013-03-15 19:44:00,
2013-03-15 15:59:00,70.1,36.0,30.17,East,91,2.0,-999.0,29,-99.99,,,0.00,weatherlink.com 1.10,2013-03-15 19:59:00,
2013-03-15 16:14:00,70.1,35.0,30.16,NNE,30,1.0,-999.0,28,-99.99,,,0.00,weatherlink.com 1.10,2013-03-15 20:14:00,
2013-03-15 16:29:00,71.6,36.0,30.16,NNE,27,2.0,-999.0,27,-99.99,,,0.00,weatherlink.com 1.10,2013-03-15 20:29:00,
2013-03-15 16:44:00,70.9,36.0,30.16,NW,308,3.0,-999.0,28,-99.99,,,0.00,weatherlink.com 1.10,2013-03-15 20:44:00,
2013-03-15 16:59:00,70.8,36.0,30.16,ESE,107,0.0,-999.0,28,-99.99,,,0.00,weatherlink.com 1.10,2013-03-15 20:59:00,
2013-03-15 17:14:00,71.3,36.0,30.15,SE,135,2.0,-999.0,27,-99.99,,,0.00,weatherlink.com 1.10,2013-03-15 21:14:00,
2013-03-15 17:29:00,72.1,36.0,30.15,West,270,0.0,-999.0,27,-99.99,,,0.00,weatherlink.com 1.10,2013-03-15 21:29:00,
2013-03-15 17:45:00,72.9,37.0,30.15,WSW,258,6.0,-999.0,27,-99.99,,,0.00,weatherlink.com 1.10,2013-03-15 21:45:00,
2013-03-15 17:59:00,72.2,36.0,30.15,SW,215,4.0,-999.0,27,-99.99,,,0.00,weatherlink.com 1.10,2013-03-15 21:59:00,
2013-03-15 18:14:00,71.8,37.0,30.14,SW,219,2.0,-999.0,28,-99.99,,,0.00,weatherlink.com 1.10,2013-03-15 22:14:00,
2013-03-15 18:29:00,71.5,37.0,30.14,SW,214,1.0,-999.0,28,-99.99,,,0.00,weatherlink.com 1.10,2013-03-15 22:29:00,
2013-03-15 18:44:00,71.1,36.0,30.15,SW,215,0.0,-999.0,28,-99.99,,,0.00,weatherlink.com 1.10,2013-03-15 22:44:00,
2013-03-15 19:00:00,70.3,36.0,30.15,SSW,210,0.0,-999.0,29,-99.99,,,0.00,weatherlink.com 1.10,2013-03-15 23:00:00,
2013-03-15 19:14:00,69.5,37.0,30.16,SSW,210,0.0,-999.0,30,-99.99,,,0.00,weatherlink.com 1.10,2013-03-15 23:14:00,
2013-03-15 19:29:00,68.8,38.0,30.15,SSW,210,1.0,-999.0,33,-99.99,,,0.00,weatherlink.com 1.10,2013-03-15 23:29:00,
2013-03-15 19:44:00,68.0,38.0,30.15,SSW,210,0.0,-999.0,34,-99.99,,,0.00,weatherlink.com 1.10,2013-03-15 23:44:00,
2013-03-15 19:59:00,66.8,40.0,30.15,SSW,210,0.0,-999.0,37,-99.99,,,0.00,weatherlink.com 1.10,2013-03-15 23:59:00,
2013-03-15 20:14:00,65.2,39.0,30.17,SSW,203,0.0,-999.0,39,-99.99,,,0.00,weatherlink.com 1.10,2013-03-16 00:14:00,
2013-03-15 20:29:00,64.1,40.0,30.17,SSW,203,0.0,-999.0,42,-99.99,,,0.00,weatherlink.com 1.10,2013-03-16 00:29:00,
2013-03-15 20:44:00,63.1,41.0,30.18,SSW,203,0.0,-999.0,44,-99.99,,,0.00,weatherlink.com 1.10,2013-03-16 00:44:00,
2013-03-15 20:59:00,62.1,41.0,30.18,SSW,203,0.0,-999.0,46,-99.99,,,0.00,weatherlink.com 1.10,2013-03-16 00:59:00,
2013-03-15 21:14:00,61.5,41.0,30.18,SSW,203,1.0,-999.0,47,-99.99,,,0.00,weatherlink.com 1.10,2013-03-16 01:14:00,
2013-03-15 21:30:00,60.9,41.0,30.18,SSW,203,0.0,-999.0,48,-99.99,,,0.00,weatherlink.com 1.10,2013-03-16 01:30:00,
2013-03-15 21:44:00,60.2,42.0,30.18,SSW,203,0.0,-999.0,51,-99.99,,,0.00,weatherlink.com 1.10,2013-03-16 01:44:00,
2013-03-15 21:59:00,60.7,43.0,30.19,SSW,201,2.0,-999.0,52,-99.99,,,0.00,weatherlink.com 1.10,2013-03-16 01:59:00,
2013-03-15 22:14:00,61.5,43.0,30.20,SSW,209,1.0,-999.0,52,-99.99,,,0.00,weatherlink.com 1.10,2013-03-16 02:14:00,
2013-03-15 22:44:00,60.3,44.0,30.20,SSW,209,1.0,-999.0,56,-99.99,,,0.00,weatherlink.com 1.10,2013-03-16 02:44:00,
2013-03-15 22:59:00,59.2,44.0,30.20,SSW,209,0.0,-999.0,58,-99.99,,,0.00,weatherlink.com 1.10,2013-03-16 02:59:00,
2013-03-15 23:14:00,58.4,45.0,30.20,SSW,209,0.0,-999.0,61,-99.99,,,0.00,weatherlink.com 1.10,2013-03-16 03:14:00,
2013-03-15 23:29:00,58.4,45.0,30.19,SSW,209,0.0,-999.0,62,-99.99,,,0.00,weatherlink.com 1.10,2013-03-16 03:29:00,
2013-03-15 23:44:00,57.3,46.0,30.20,SSW,209,0.0,-999.0,66,-99.99,,,0.00,weatherlink.com 1.10,2013-03-16 03:44:00,
2013-03-15 23:59:00,56.4,45.0,30.19,SSW,209,0.0,-999.0,67,-99.99,,,0.00,weatherlink.com 1.10,2013-03-16 03:59:00,